Jackson, WY

9:57 AM MST on December 12, 2019 (GMT -0700)
Jackson Hole

Weather History for KJAC - October, 2019

Change the Weather History Date:

Sunday, October 6, 2019

  Actual Average Record
Temperature  
Mean Temperature 36 °F -  
Max Temperature 51 °F 60 °F 75 °F (1980)
Min Temperature 23 °F 24 °F 12 °F (2000)
Degree Days  
Heating Degree Days 28    
Moisture  
Dew Point 22 °F    
Average Humidity 61    
Maximum Humidity 92    
Minimum Humidity 31    
Precipitation  
Precipitation 0.00 in - - ()
Sea Level Pressure  
Sea Level Pressure 30.46 in    
Wind  
Wind Speed 5 mph ()    
Max Wind Speed 15 mph    
Max Gust Speed -    
Visibility 10.0 miles    
Events Rain    
Averages and records for this station are not official NWS values.
T = Trace of Precipitation, MM = Missing Value Source: Averaged Metar Reports

Daily Weather History Graph

Daily Weather History Graph

Search for Another Location

Airport or City:

Astronomy

Oct. 06, 2019 Rise Set
Actual Time 7:26 AM MDT 6:55 PM MDT
Civil Twilight 6:57 AM MDT 7:23 PM MDT
Nautical Twilight 6:24 AM MDT 7:57 PM MDT
Astronomical Twilight 5:50 AM MDT 8:30 PM MDT
Moon 3:50 PM MDT (10/6) 12:13 AM MDT (10/6)
Length of Visible Light 12h 26m
Length of Day
11h 29m
First Quarter, 60% of the Moon is Illuminated
Oct 6
First Quarter
Oct 13
Full
Oct 21
Last Quarter
Oct 27
New
Nov 4
First Quarter

Hourly Weather History & Observations

Time (MDT) Temp. Windchill Dew Point Humidity Pressure Visibility Wind Dir Wind Speed Gust Speed Precip Events Conditions
12:56 AM 35.1 °F 30.1 °F 25.0 °F 67% 30.35 in 10.0 mi SSE 5.8 mph - N/A   Overcast
1:56 AM 33.1 °F 26.9 °F 25.0 °F 72% 30.37 in 10.0 mi Variable 6.9 mph - 0.00 in Rain Light Rain
2:56 AM 35.1 °F 32.2 °F 24.1 °F 64% 30.39 in 10.0 mi Variable 3.5 mph - 0.00 in Rain Light Rain
3:56 AM 33.1 °F - 23.0 °F 66% 30.41 in 10.0 mi Calm Calm - 0.00 in   Partly Cloudy
4:56 AM 30.9 °F 27.5 °F 24.1 °F 76% 30.43 in 10.0 mi Variable 3.5 mph - N/A   Overcast
5:56 AM 28.0 °F 20.8 °F 21.9 °F 78% 30.48 in 10.0 mi SSE 6.9 mph - N/A   Partly Cloudy
6:56 AM 23.0 °F 15.8 °F 21.0 °F 92% 30.53 in 10.0 mi North 5.8 mph - N/A   Clear
7:56 AM 23.0 °F - 19.9 °F 88% 30.56 in 10.0 mi Calm Calm - N/A   Clear
8:56 AM 32.0 °F - 24.1 °F 73% 30.52 in 10.0 mi Calm Calm - N/A   Clear
11:56 AM 44.1 °F 40.1 °F 21.9 °F 42% 30.48 in 10.0 mi SSW 6.9 mph - N/A   Clear
12:56 PM 46.0 °F 41.4 °F 21.9 °F 39% 30.46 in 10.0 mi South 9.2 mph - N/A   Clear
1:56 PM 48.0 °F - 21.0 °F 34% 30.45 in 10.0 mi SW 8.1 mph - N/A   Clear
2:56 PM 48.9 °F - 23.0 °F 36% 30.43 in 10.0 mi West 15.0 mph - N/A   Clear
3:56 PM 50.0 °F - 21.0 °F 32% 30.42 in 10.0 mi West 9.2 mph - N/A   Clear
4:56 PM 48.9 °F - 21.0 °F 33% 30.42 in 10.0 mi West 9.2 mph - N/A   Clear
5:56 PM 48.9 °F - 19.0 °F 31% 30.43 in 10.0 mi SSW 6.9 mph - N/A   Clear
6:56 PM 41.0 °F 34.7 °F 21.9 °F 47% 30.48 in 10.0 mi SW 10.4 mph - N/A   Clear
7:56 PM 37.0 °F 34.5 °F 21.9 °F 54% 30.51 in 10.0 mi SSW 3.5 mph - N/A   Clear
8:56 PM 32.0 °F - 23.0 °F 69% 30.50 in 10.0 mi Calm Calm - N/A   Clear
9:56 PM 28.0 °F 22.8 °F 21.9 °F 78% 30.51 in 10.0 mi NNE 4.6 mph - N/A   Clear
10:56 PM 27.0 °F 23.0 °F 23.0 °F 85% 30.50 in 10.0 mi NNE 3.5 mph - N/A   Clear
11:56 PM 26.1 °F 16.2 °F 23.0 °F 88% 30.48 in 10.0 mi North 10.4 mph - N/A   Clear